Time,TemperatureF,DewpointF,PressureIn,WindDirection,WindDirectionDegrees,WindSpeedMPH,WindSpeedGustMPH,Humidity,HourlyPrecipIn,Conditions,Clouds,dailyrainin,SoftwareType,DateUTC
2013-01-15 00:00:00,20.5,16.4,30.47,NW,315,2.0,6.0,84,0.00,,SKC,0.00,VWS V14.01,2013-01-15 05:00:00,
2013-01-15 00:30:00,20.6,16.8,30.47,NW,315,1.0,5.0,85,0.00,,SKC,0.00,VWS V14.01,2013-01-15 05:30:00,
2013-01-15 01:00:00,20.6,16.8,30.47,NNW,338,1.0,6.0,85,0.00,,SKC,0.00,VWS V14.01,2013-01-15 06:00:00,
2013-01-15 01:30:00,20.7,16.9,30.47,NW,315,1.0,6.0,85,0.00,,SKC,0.00,VWS V14.01,2013-01-15 06:30:00,
2013-01-15 02:00:00,20.7,16.9,30.46,NE,45,1.0,6.0,85,0.00,,SKC,0.00,VWS V14.01,2013-01-15 07:00:00,
2013-01-15 02:30:00,20.8,16.7,30.46,NE,45,1.0,6.0,84,0.00,,SKC,0.00,VWS V14.01,2013-01-15 07:30:00,
2013-01-15 03:00:00,20.7,16.6,30.46,NW,315,2.0,6.0,84,0.00,,SKC,0.00,VWS V14.01,2013-01-15 08:00:00,
2013-01-15 03:30:00,20.8,16.7,30.46,NNE,22,1.0,5.0,84,0.00,,SKC,0.00,VWS V14.01,2013-01-15 08:30:00,
2013-01-15 04:00:00,20.7,16.4,30.46,NNE,22,1.0,6.0,83,0.00,,SKC,0.00,VWS V14.01,2013-01-15 09:00:00,
2013-01-15 04:30:00,20.3,16.2,30.46,NE,45,1.0,6.0,84,0.00,,SKC,0.00,VWS V14.01,2013-01-15 09:30:00,
2013-01-15 05:00:00,20.2,16.4,30.45,NNW,338,1.0,5.0,85,0.00,,SKC,0.00,VWS V14.01,2013-01-15 10:00:00,
2013-01-15 05:30:00,20.1,16.6,30.45,NW,315,2.0,5.0,86,0.00,,SKC,0.00,VWS V14.01,2013-01-15 10:30:00,
2013-01-15 06:00:00,18.9,16.2,30.45,NW,315,2.0,6.0,89,0.00,,SKC,0.00,VWS V14.01,2013-01-15 11:00:00,
2013-01-15 06:30:00,18.3,15.9,30.45,NW,315,1.0,4.0,90,0.00,,SKC,0.00,VWS V14.01,2013-01-15 11:30:00,
2013-01-15 07:00:00,18.4,16.0,30.45,ENE,68,1.0,4.0,90,0.00,,SKC,0.00,VWS V14.01,2013-01-15 12:00:00,
2013-01-15 07:30:00,18.2,15.8,30.46,NE,45,0.0,4.0,90,0.00,,SKC,0.00,VWS V14.01,2013-01-15 12:30:00,
2013-01-15 08:00:00,18.3,15.9,30.46,NNE,22,0.0,2.0,90,0.00,,SKC,0.00,VWS V14.01,2013-01-15 13:00:00,
2013-01-15 08:30:00,18.9,16.2,30.46,NE,45,1.0,4.0,89,0.00,,SKC,0.00,VWS V14.01,2013-01-15 13:30:00,
2013-01-15 09:00:00,19.6,16.4,30.45,NE,45,1.0,7.0,87,0.00,,SKC,0.00,VWS V14.01,2013-01-15 14:00:00,
2013-01-15 09:30:00,20.6,16.8,30.45,NE,45,1.0,9.0,85,0.00,,SKC,0.00,VWS V14.01,2013-01-15 14:30:00,
2013-01-15 10:00:00,22.1,15.4,30.47,NE,45,3.0,10.0,75,0.00,,SKC,0.00,VWS V14.01,2013-01-15 15:00:00,
2013-01-15 10:30:00,23.3,15.9,30.47,NE,45,3.0,10.0,73,0.00,,SKC,0.00,VWS V14.01,2013-01-15 15:30:00,
2013-01-15 11:00:00,24.5,15.8,30.46,NE,45,3.0,12.0,69,0.00,,SKC,0.00,VWS V14.01,2013-01-15 16:00:00,
2013-01-15 11:30:00,25.8,16.7,30.43,NE,45,3.0,10.0,68,0.00,,SKC,0.00,VWS V14.01,2013-01-15 16:30:00,
2013-01-15 12:00:00,26.1,15.2,30.40,NE,45,4.0,12.0,63,0.00,,SKC,0.00,VWS V14.01,2013-01-15 17:00:00,
2013-01-15 12:30:00,27.3,16.4,30.39,NE,45,3.0,12.0,63,0.00,,SKC,0.00,VWS V14.01,2013-01-15 17:30:00,
2013-01-15 13:00:00,28.1,16.4,30.35,NE,45,3.0,11.0,61,0.00,,SKC,0.00,VWS V14.01,2013-01-15 18:00:00,
2013-01-15 13:30:00,28.2,16.1,30.35,NE,45,2.0,12.0,60,0.00,,SKC,0.00,VWS V14.01,2013-01-15 18:30:00,
2013-01-15 14:00:00,29.1,17.0,30.32,NNE,22,2.0,9.0,60,0.00,,SKC,0.00,VWS V14.01,2013-01-15 19:00:00,
2013-01-15 14:30:00,29.4,17.2,30.33,NNE,22,2.0,10.0,60,0.00,,SKC,0.00,VWS V14.01,2013-01-15 19:30:00,
2013-01-15 15:00:00,29.4,17.2,30.33,NNE,22,3.0,10.0,60,0.00,,SKC,0.00,VWS V14.01,2013-01-15 20:00:00,
2013-01-15 15:30:00,29.1,17.7,30.33,NE,45,2.0,7.0,62,0.00,,SKC,0.00,VWS V14.01,2013-01-15 20:30:00,
2013-01-15 16:00:00,29.3,17.9,30.33,NE,45,1.0,6.0,62,0.00,,SKC,0.00,VWS V14.01,2013-01-15 21:00:00,
2013-01-15 16:30:00,29.6,21.0,30.33,NE,45,1.0,7.0,70,0.00,,SKC,0.00,VWS V14.01,2013-01-15 21:30:00,
2013-01-15 17:00:00,29.5,21.6,30.31,NE,45,1.0,5.0,72,0.00,,SKC,0.00,VWS V14.01,2013-01-15 22:00:00,
2013-01-15 17:30:00,29.3,21.7,30.31,NE,45,1.0,4.0,73,0.00,,SKC,0.00,VWS V14.01,2013-01-15 22:30:00,
2013-01-15 18:00:00,29.0,21.4,30.29,NE,45,1.0,5.0,73,0.00,,SKC,0.00,VWS V14.01,2013-01-15 23:00:00,
2013-01-15 18:30:00,28.8,22.2,30.29,NNE,22,1.0,4.0,76,0.00,,SKC,0.00,VWS V14.01,2013-01-15 23:30:00,
2013-01-15 19:00:00,28.6,21.7,30.28,NE,45,1.0,6.0,75,0.00,,SKC,0.00,VWS V14.01,2013-01-16 00:00:00,
2013-01-15 19:30:00,28.3,21.7,30.27,NE,45,1.0,5.0,76,0.00,,SKC,0.00,VWS V14.01,2013-01-16 00:30:00,
2013-01-15 20:00:00,28.2,21.6,30.27,NE,45,1.0,7.0,76,0.00,,SKC,0.00,VWS V14.01,2013-01-16 01:00:00,
2013-01-15 20:30:00,28.1,21.5,30.25,NE,45,1.0,5.0,76,0.00,,SKC,0.00,VWS V14.01,2013-01-16 01:30:00,
2013-01-15 21:00:00,27.8,21.5,30.23,NE,45,1.0,5.0,77,0.00,,SKC,0.00,VWS V14.01,2013-01-16 02:00:00,
2013-01-15 21:30:00,27.7,21.4,30.22,NNE,22,1.0,5.0,77,0.00,,SKC,0.00,VWS V14.01,2013-01-16 02:30:00,
2013-01-15 22:00:00,27.5,21.5,30.22,NE,45,1.0,5.0,78,0.00,,SKC,0.00,VWS V14.01,2013-01-16 03:00:00,
2013-01-15 22:30:00,27.1,22.1,30.20,NNE,22,0.0,4.0,81,0.00,,SKC,0.00,VWS V14.01,2013-01-16 03:30:00,
2013-01-15 23:00:00,27.2,22.4,30.19,NE,45,1.0,3.0,82,0.00,,SKC,0.00,VWS V14.01,2013-01-16 04:00:00,
2013-01-15 23:30:00,26.2,21.8,30.17,ENE,68,0.0,3.0,83,0.00,,SKC,0.00,VWS V14.01,2013-01-16 04:30:00,